Powrót do katalogu

QIANFAN-151

AktywnyŁącznośćPO
NORAD 69110·PAYLOAD·🇨🇳 China

Wystrzelony May 17, 2026 z Wenchang Space Launch Site

Loading…

Następne Przeloty (najbliższe 24 godziny)

TLE

ŚwieżeSource: Space-Track

Epoka: Sep 14, 2026, 13:41 UTC

1 69110U 26108G   26257.57058272  .00000097  00000-0  13240-3 0  9991
2 69110  89.0189  13.1146 0001817 101.8154 258.3201 13.51026639 16506

Śledź QIANFAN-151 w czasie rzeczywistym z AllMySat

Download on the App Store